User: anonymous   Login
Location: Unspecified
(51.2667°N, 0.0000°E)
Time: 15:38:24
(UTC+00:00)
Language:

QB50P2 - Orbit

View from above orbital plane
View from above orbital plane
View from above satellite
View from above satellite

Ground track
Ground track

The orbit data is extracted from the following two-line orbital elements,

1 40032U 14033Y   19260.99099036  .00000205  00000-0  28062-4 0  9992
2 40032  97.8947 178.5241 0013130 112.4886 247.7722 14.88513880284822
Epoch (UTC): 17 September 2019 23:47:01
Eccentricity: 0.0013130
inclination: 97.8947°
perigee height: 593 km
apogee height: 612 km
right ascension of ascending node: 178.5241°
argument of perigee: 112.4886°
revolutions per day: 14.88513880
mean anomaly at epoch: 247.7722°
orbit number at epoch: 28482

The dashed part of the orbit path shows where the satellite is in the earth's shadow,  

DLR